Wahpeton, MN

6:06 PM CST on December 14, 2019 (GMT -0600)
Stern

Weather History for KBWP - October, 2019

Change the Weather History Date:

Wednesday, October 23, 2019

  Actual Average (WUND) Record (WUND)
Temperature  
Mean Temperature 32 °F -  
Max Temperature 37 °F - - (-1)
Min Temperature 28 °F - - (-1)
Degree Days  
Heating Degree Days 32    
Moisture  
Dew Point 29 °F    
Average Humidity 85    
Maximum Humidity 93    
Minimum Humidity 70    
Precipitation  
Precipitation 0.00 in - - ()
Sea Level Pressure  
Sea Level Pressure 29.97 in    
Wind  
Wind Speed 8 mph ()    
Max Wind Speed 14 mph    
Max Gust Speed 18 mph    
Visibility 10.0 miles    
Events      
Averages and records for this station are not official NWS values.
T = Trace of Precipitation, MM = Missing Value Source: Averaged Metar Reports

Daily Weather History Graph

Daily Weather History Graph

Search for Another Location

Airport or City:

Astronomy

Oct. 23, 2019 Rise Set
Actual Time 7:54 AM CDT 6:26 PM CDT
Civil Twilight 7:23 AM CDT 6:57 PM CDT
Nautical Twilight 6:48 AM CDT 7:32 PM CDT
Astronomical Twilight 6:13 AM CDT 8:06 PM CDT
Moon 1:49 AM CDT (10/23) 4:39 PM CDT (10/23)
Length of Visible Light 11h 33m
Length of Day
10h 31m
Waning Crescent, 26% of the Moon is Illuminated
Oct 23
Waning Crescent
Oct 27
New
Nov 4
First Quarter
Nov 12
Full
Nov 19
Last Quarter

Hourly Weather History & Observations

Time (CDT) Temp. Windchill Dew Point Humidity Pressure Visibility Wind Dir Wind Speed Gust Speed Precip Events Conditions
12:15 AM 32.0 °F 24.8 °F 28.4 °F 87% 29.75 in 10.0 mi WNW 8.1 mph - N/A   Unknown
12:55 AM 32.0 °F 23.6 °F 28.4 °F 87% 29.75 in 10.0 mi WNW 10.4 mph - N/A   Unknown
1:15 AM 32.0 °F 24.8 °F 28.4 °F 87% 29.75 in 10.0 mi WNW 8.1 mph - N/A   Unknown
1:35 AM 32.0 °F 25.6 °F 28.4 °F 87% 29.76 in 10.0 mi WNW 6.9 mph - N/A   Unknown
1:55 AM 32.0 °F 25.6 °F 28.4 °F 87% 29.76 in 10.0 mi WNW 6.9 mph - N/A   Unknown
2:15 AM 32.0 °F 25.6 °F 28.4 °F 87% 29.76 in 10.0 mi NW 6.9 mph - N/A   Unknown
2:35 AM 30.2 °F 24.3 °F 28.4 °F 93% 29.76 in 10.0 mi NW 5.8 mph - N/A   Unknown
2:55 AM 30.2 °F 24.3 °F 28.4 °F 93% 29.78 in 10.0 mi WNW 5.8 mph - N/A   Unknown
3:15 AM 30.2 °F 23.4 °F 28.4 °F 93% 29.79 in 10.0 mi West 6.9 mph - N/A   Unknown
3:35 AM 30.2 °F 22.6 °F 28.4 °F 93% 29.79 in 10.0 mi West 8.1 mph - N/A   Unknown
3:55 AM 32.0 °F 25.6 °F 28.4 °F 87% 29.79 in 10.0 mi WNW 6.9 mph - N/A   Unknown
4:15 AM 32.0 °F 24.8 °F 28.4 °F 87% 29.80 in 10.0 mi WNW 8.1 mph - N/A   Unknown
4:35 AM 32.0 °F 25.6 °F 28.4 °F 87% 29.80 in 10.0 mi WNW 6.9 mph - N/A   Unknown
4:55 AM 30.2 °F 24.3 °F 28.4 °F 93% 29.80 in 10.0 mi NW 5.8 mph - N/A   Unknown
5:15 AM 30.2 °F 23.4 °F 28.4 °F 93% 29.81 in 10.0 mi WNW 6.9 mph - N/A   Unknown
5:35 AM 30.2 °F 23.4 °F 28.4 °F 93% 29.82 in 10.0 mi WNW 6.9 mph - N/A   Unknown
5:55 AM 30.2 °F 24.3 °F 26.6 °F 86% 29.82 in 10.0 mi NW 5.8 mph - N/A   Unknown
6:15 AM 30.2 °F 24.3 °F 26.6 °F 86% 29.83 in 10.0 mi NW 5.8 mph - N/A   Unknown
6:35 AM 30.2 °F 25.4 °F 26.6 °F 86% 29.84 in 10.0 mi NW 4.6 mph - N/A   Unknown
6:55 AM 28.4 °F 22.2 °F 26.6 °F 93% 29.84 in 10.0 mi NW 5.8 mph - N/A   Unknown
7:15 AM 30.2 °F 23.4 °F 26.6 °F 86% 29.85 in 10.0 mi NW 6.9 mph - N/A   Unknown
7:35 AM 30.2 °F 23.4 °F 26.6 °F 86% 29.85 in 10.0 mi NW 6.9 mph - N/A   Unknown
7:55 AM 30.2 °F 24.3 °F 26.6 °F 86% 29.85 in 10.0 mi NW 5.8 mph - N/A   Unknown
8:35 AM 30.2 °F 22.6 °F 28.4 °F 93% 29.87 in 10.0 mi WNW 8.1 mph - N/A   Unknown
8:55 AM 32.0 °F 24.2 °F 28.4 °F 87% 29.89 in 10.0 mi WNW 9.2 mph - N/A   Unknown
9:15 AM 32.0 °F 24.2 °F 28.4 °F 87% 29.90 in 10.0 mi NW 9.2 mph - N/A   Unknown
9:35 AM 32.0 °F 24.2 °F 28.4 °F 87% 29.90 in 10.0 mi NNW 9.2 mph - N/A   Unknown
9:55 AM 32.0 °F 22.5 °F 28.4 °F 87% 29.91 in 10.0 mi North 12.7 mph - N/A   Unknown
10:15 AM 32.0 °F 23.0 °F 30.2 °F 93% 29.92 in 10.0 mi NNW 11.5 mph - N/A   Unknown
10:35 AM 32.0 °F 23.0 °F 30.2 °F 93% 29.94 in 10.0 mi NNW 11.5 mph - N/A   Unknown
10:55 AM 32.0 °F 24.8 °F 30.2 °F 93% 29.95 in 10.0 mi NNW 8.1 mph - N/A   Unknown
11:35 AM 32.0 °F 23.0 °F 30.2 °F 93% 29.97 in 10.0 mi NNW 11.5 mph - N/A   Unknown
11:55 AM 33.8 °F 25.8 °F 30.2 °F 87% 29.97 in 10.0 mi NNW 10.4 mph - N/A   Unknown
12:15 PM 33.8 °F 24.3 °F 30.2 °F 87% 29.98 in 10.0 mi North 13.8 mph 17.3 mph N/A   Unknown
12:35 PM 33.8 °F 25.8 °F 30.2 °F 87% 29.98 in 10.0 mi NNW 10.4 mph - N/A   Unknown
12:55 PM 33.8 °F 25.3 °F 32.0 °F 93% 29.98 in 10.0 mi NNW 11.5 mph 18.4 mph N/A   Unknown
1:15 PM 33.8 °F 25.8 °F 32.0 °F 93% 29.99 in 10.0 mi NNW 10.4 mph 16.1 mph N/A   Unknown
1:35 PM 35.6 °F 28.0 °F 32.0 °F 87% 29.99 in 10.0 mi NNW 10.4 mph - N/A   Unknown
1:55 PM 33.8 °F 25.3 °F 30.2 °F 87% 30.00 in 10.0 mi NNW 11.5 mph - N/A   Unknown
2:15 PM 35.6 °F 27.5 °F 30.2 °F 81% 30.00 in 10.0 mi NW 11.5 mph - N/A   Unknown
2:35 PM 35.6 °F 26.6 °F 32.0 °F 87% 30.00 in 10.0 mi NW 13.8 mph - N/A   Unknown
2:55 PM 35.6 °F 27.5 °F 32.0 °F 87% 30.01 in 10.0 mi NNW 11.5 mph - N/A   Unknown
3:15 PM 35.6 °F 28.0 °F 32.0 °F 87% 30.01 in 10.0 mi NNW 10.4 mph - N/A   Unknown
3:35 PM 37.4 °F 30.3 °F 32.0 °F 81% 30.02 in 10.0 mi NNW 10.4 mph - N/A   Unknown
3:55 PM 37.4 °F 29.8 °F 30.2 °F 75% 30.03 in 10.0 mi NNW 11.5 mph - N/A   Unknown
4:15 PM 37.4 °F 31.4 °F 32.0 °F 81% 30.04 in 10.0 mi NNW 8.1 mph - N/A   Unknown
4:35 PM 37.4 °F 30.8 °F 32.0 °F 81% 30.05 in 10.0 mi NNW 9.2 mph - N/A   Unknown
4:55 PM 37.4 °F 29.3 °F 32.0 °F 81% 30.06 in 10.0 mi NNW 12.7 mph - N/A   Unknown
5:15 PM 37.4 °F 30.3 °F 32.0 °F 81% 30.06 in 10.0 mi NW 10.4 mph - N/A   Unknown
5:35 PM 37.4 °F 30.3 °F 32.0 °F 81% 30.08 in 10.0 mi NNW 10.4 mph - N/A   Unknown
5:55 PM 37.4 °F 30.8 °F 30.2 °F 75% 30.09 in 10.0 mi NW 9.2 mph - N/A   Unknown
6:15 PM 37.4 °F 32.8 °F 32.0 °F 81% 30.10 in 10.0 mi NW 5.8 mph - N/A   Unknown
6:35 PM 37.4 °F 32.8 °F 32.0 °F 81% 30.11 in 10.0 mi NW 5.8 mph - N/A   Unknown
6:55 PM 37.4 °F 29.8 °F 30.2 °F 75% 30.12 in 10.0 mi NW 11.5 mph - N/A   Unknown
7:15 PM 37.4 °F 29.3 °F 28.4 °F 70% 30.13 in 10.0 mi NW 12.7 mph - N/A   Unknown
7:35 PM 37.4 °F 31.4 °F 28.4 °F 70% 30.14 in 10.0 mi NNW 8.1 mph - N/A   Unknown
7:55 PM 37.4 °F 32.1 °F 28.4 °F 70% 30.16 in 10.0 mi NNW 6.9 mph - N/A   Unknown
8:15 PM 35.6 °F 29.9 °F 30.2 °F 81% 30.17 in 10.0 mi NW 6.9 mph - N/A   Unknown
8:35 PM 35.6 °F 30.7 °F 30.2 °F 81% 30.17 in 10.0 mi NW 5.8 mph - N/A   Unknown
8:55 PM 35.6 °F 29.9 °F 30.2 °F 81% 30.18 in 10.0 mi NW 6.9 mph - N/A   Unknown
9:15 PM 35.6 °F 29.9 °F 30.2 °F 81% 30.19 in 10.0 mi NW 6.9 mph - N/A   Unknown
9:35 PM 35.6 °F 30.7 °F 30.2 °F 81% 30.19 in 10.0 mi NW 5.8 mph - N/A   Unknown
9:55 PM 35.6 °F 28.6 °F 30.2 °F 81% 30.19 in 10.0 mi NNW 9.2 mph - N/A   Unknown
10:15 PM 35.6 °F 29.2 °F 28.4 °F 75% 30.20 in 10.0 mi NNW 8.1 mph - N/A   Unknown
10:35 PM 35.6 °F 30.7 °F 28.4 °F 75% 30.21 in 10.0 mi NNW 5.8 mph - N/A   Unknown
10:55 PM 33.8 °F 29.6 °F 26.6 °F 75% 30.21 in 10.0 mi NW 4.6 mph - N/A   Unknown
11:15 PM 32.0 °F 26.4 °F 28.4 °F 87% 30.21 in 10.0 mi WNW 5.8 mph - N/A   Unknown
11:35 PM 32.0 °F 24.8 °F 28.4 °F 87% 30.21 in 10.0 mi West 8.1 mph - N/A   Unknown
11:55 PM 32.0 °F 25.6 °F 28.4 °F 87% 30.21 in 10.0 mi WSW 6.9 mph - N/A   Unknown